Regional Weather Roundup
Issued by NWS

Home | Current Version | Previous Version | Text Only | Print | Product List | Glossary Off
Versions: 1 2 3 4 5 6 7 8 9 10 11 12 13 14 15 16 17 18 19 20 21 22 23 24 25 26 27 28 29 30 31 32 33 34 35 36 37 38 39 40 41 42 43 44 45 46 47 48 49 50

000
ASUS45 KSLC 290910
RWRUT

UTAH REGIONAL WEATHER ROUNDUP
NATIONAL WEATHER SERVICE SALT LAKE CITY UT
300 AM MDT WED JUL 29 2015

UTZ001>011-023>025-291000-

NORTHERN UTAH

CITY           SKY/WX    TMP DP  RH WIND       PRES   REMARKS
BRIGHAM CITY   CLEAR     58  36  44 CALM      30.27R
HILL AFB       CLEAR     58  27  30 E16       30.28R
LOGAN          CLEAR     46  37  71 CALM      30.30S
OGDEN          CLEAR     57  28  33 S8        30.26S
PROVO AIRPORT  CLEAR     52  32  46 CALM      30.28R
SALT LAKE CITY CLEAR     59  32  36 S3        30.25S
VERNAL         CLEAR     54  30  40 NW5       30.26S
WENDOVER       CLEAR     61  28  29 CALM      30.27S
HEBER CITY     CLEAR     41  30  65 E3        30.34S
WEST JORDAN    CLEAR     55  27  33 W5        30.28R

$$

UTZ012>022-026-027-291000-

SOUTHERN/CENTRAL UTAH

CITY           SKY/WX    TMP DP  RH WIND       PRES   REMARKS
BLANDING       MOCLDY    64  29  26 NW10      30.26F
BRYCE CANYON   CLEAR     45  29  53 W7        30.39F
CEDAR CITY     CLEAR     56  26  31 CALM      30.26S
DELTA          CLEAR     60  21  22 N9        30.25S
HANKSVILLE     CLEAR     59  27  29 CALM      30.17S
MILFORD        CLEAR     59  22  24 N8        30.24R
MOAB/CYNLANDS  CLEAR     66  27  23 W3        30.14R
PRICE          CLEAR     58  19  22 N8        30.27F
ST GEORGE      SUNNY     82  30  15 NE14      30.04R
KANAB          CLEAR     59  34  38 NE5       30.23S

$$

REGIONAL REPORTS     COLORADO/ARIZONA

CITY           SKY/WX    TMP DP  RH WIND       PRES   REMARKS
CRAIG, CO      CLEAR     43  36  76 SE6       30.33R
GRAND JUNCTION CLEAR     60  29  30 E5        30.17R
RIFLE          CLEAR     56  34  43 E3        30.26R
MONTROSE       CLEAR     60  37  42 SE7       30.26R
CORTEZ         CLEAR     52  38  58 SE7       30.21F
PAGE, AZ       PTCLDY    80  29  15 W5        30.08S
GRAND CANYON   MOCLDY    50  26  39 CALM      30.29S
KINGMAN        PTCLDY    71  39  31 CALM      30.05R
FLAGSTAFF      MOCLDY    61  46  57 SW8       30.33S

$$

REGIONAL REPORTS    NEVADA/IDAHO/WYOMING

CITY           SKY/WX    TMP DP  RH WIND       PRES   REMARKS
LAS VEGAS, NV  PTCLDY    85  30  13 SW8       29.88F
ELY            CLEAR     49  20  31 S7        30.34R
ELKO           CLEAR     59  29  31 E6        30.26S
POCATELLO, ID  CLEAR     43  39  86 CALM      30.31R
BURLEY         CLEAR     46  37  71 SW3       30.27S
EVANSTON, WY   PTCLDY    50  27  40 NE3       30.41S
ROCK SPRINGS   CLEAR     50  24  36 E7        30.38S
KEMMERER       CLEAR     39  32  75 NW9       30.42S WCI  33

$$


USA.gov is the U.S. government's official web portal to all federal, state and local government web resources and services.